Weather History for KAIZ - February, 2014

Change the Weather History Date:

Friday, February 21, 2014

  Actual Average Record
Temperature  
Mean Temperature 45 °F -  
Max Temperature 57 °F 46 °F 64 °F (2000)
Min Temperature 33 °F 28 °F 17 °F (2008)
Degree Days  
Heating Degree Days 20    
Moisture  
Dew Point 14 °F    
Average Humidity 30    
Maximum Humidity 52    
Minimum Humidity 16    
Precipitation  
Precipitation 0.00 in - - ()
Sea Level Pressure  
Sea Level Pressure 29.92 in    
Wind  
Wind Speed 12 mph (WSW)    
Max Wind Speed 20 mph    
Max Gust Speed 36 mph    
Visibility 10 miles    
Events      
Averages and records for this station are not official NWS values.
T = Trace of Precipitation, MM = Missing Value Source: NWS Daily Summary

Daily Weather History Graph

Daily Weather History Graph

Search for Another Location

Airport or City:

Trip Planner

Search our weather history database for the weather conditions in past years. The results will help you decide how hot, cold, wet, or windy it might be!

Date:

Astronomy

Feb. 21, 2014 Rise Set
Actual Time 6:52 AM CST 5:55 PM CST
Civil Twilight 6:26 AM CST 6:22 PM CST
Nautical Twilight 5:55 AM CST 6:52 PM CST
Astronomical Twilight 5:24 AM CST 7:23 PM CST
Moon No Moon Rise 10:23 AM CST (2/21)
Length of Visible Light 11h 55m
Length of Day
11h 02m
Waning Gibbous, 60% of the Moon is Illuminated
Feb 21
Waning Gibbous
Feb 22
Last Quarter
Mar 1
New
Mar 8
First Quarter
Mar 16
Full

Hourly Weather History & Observations

Time (CST) Temp. Windchill Dew Point Humidity Pressure Visibility Wind Dir Wind Speed Gust Speed Precip Events Conditions
12:15 AM 39.2 °F 31.6 °F 21.2 °F 49% 29.80 in 10.0 mi West 12.7 mph 19.6 mph N/A   Clear
12:35 AM 39.2 °F 32.0 °F 21.2 °F 49% 29.81 in 10.0 mi West 11.5 mph 20.7 mph N/A   Clear
12:55 AM 39.2 °F 33.6 °F 21.2 °F 49% 29.82 in 10.0 mi West 8.1 mph 17.3 mph N/A   Clear
1:15 AM 39.2 °F 30.5 °F 19.4 °F 45% 29.82 in 10.0 mi West 16.1 mph 25.3 mph N/A   Clear
1:35 AM 39.2 °F 31.2 °F 19.4 °F 45% 29.83 in 10.0 mi West 13.8 mph 25.3 mph N/A   Clear
1:55 AM 39.2 °F 30.2 °F 17.6 °F 42% 29.84 in 10.0 mi West 17.3 mph 32.2 mph N/A   Clear
2:15 AM 39.2 °F 31.6 °F 15.8 °F 39% 29.86 in 10.0 mi West 12.7 mph 31.1 mph N/A   Clear
2:35 AM 37.4 °F 28.9 °F 12.2 °F 36% 29.87 in 10.0 mi West 13.8 mph 32.2 mph N/A   Clear
2:55 AM 37.4 °F 28.2 °F 12.2 °F 36% 29.88 in 10.0 mi West 16.1 mph 35.7 mph N/A   Clear
3:15 AM 37.4 °F 28.5 °F 10.4 °F 33% 29.89 in 10.0 mi West 15.0 mph 26.5 mph N/A   Clear
3:35 AM 37.4 °F 28.2 °F 10.4 °F 33% 29.90 in 10.0 mi West 16.1 mph 26.5 mph N/A   Clear
3:55 AM 37.4 °F 29.3 °F 10.4 °F 33% 29.92 in 10.0 mi West 12.7 mph 20.7 mph N/A   Clear
4:15 AM 35.6 °F 27.1 °F 10.4 °F 35% 29.92 in 10.0 mi West 12.7 mph 18.4 mph N/A   Clear
4:35 AM 35.6 °F 26.6 °F 10.4 °F 35% 29.94 in 10.0 mi West 13.8 mph - N/A   Clear
4:55 AM 35.6 °F 28.0 °F 12.2 °F 38% 29.94 in 10.0 mi West 10.4 mph 17.3 mph N/A   Clear
5:15 AM 35.6 °F 28.0 °F 12.2 °F 38% 29.95 in 10.0 mi West 10.4 mph 18.4 mph N/A   Clear
5:35 AM 35.6 °F 29.9 °F 12.2 °F 38% 29.95 in 10.0 mi West 6.9 mph - N/A   Clear
5:55 AM 33.8 °F 27.7 °F 14.0 °F 44% 29.95 in 10.0 mi WSW 6.9 mph - N/A   Clear
6:15 AM 33.8 °F 27.7 °F 15.8 °F 48% 29.95 in 10.0 mi WSW 6.9 mph - N/A   Clear
6:35 AM 33.8 °F 27.0 °F 15.8 °F 48% 29.96 in 10.0 mi WSW 8.1 mph - N/A   Clear
6:55 AM 33.8 °F 27.0 °F 15.8 °F 48% 29.96 in 10.0 mi WSW 8.1 mph - N/A   Clear
7:15 AM 33.8 °F 27.0 °F 15.8 °F 48% 29.97 in 10.0 mi WSW 8.1 mph - N/A   Clear
7:35 AM 33.8 °F 27.7 °F 17.6 °F 52% 29.96 in 10.0 mi West 6.9 mph - N/A   Clear
7:55 AM 33.8 °F 27.7 °F 17.6 °F 52% 29.97 in 10.0 mi West 6.9 mph - N/A   Clear
8:15 AM 35.6 °F 28.6 °F 19.4 °F 52% 29.98 in 10.0 mi West 9.2 mph - N/A   Clear
8:35 AM 37.4 °F 32.1 °F 19.4 °F 48% 29.99 in 10.0 mi West 6.9 mph - N/A   Clear
8:55 AM 37.4 °F 30.3 °F 19.4 °F 48% 29.99 in 10.0 mi West 10.4 mph 16.1 mph N/A   Clear
9:15 AM 39.2 °F 35.0 °F 19.4 °F 45% 29.99 in 10.0 mi WSW 5.8 mph - N/A   Clear
9:35 AM 41.0 °F 35.8 °F 17.6 °F 39% 29.99 in 10.0 mi West 8.1 mph - N/A   Clear
9:55 AM 42.8 °F 38.0 °F 17.6 °F 36% 30.00 in 10.0 mi West 8.1 mph 17.3 mph N/A   Clear
10:15 AM 44.6 °F 39.7 °F 15.8 °F 31% 30.00 in 10.0 mi WSW 9.2 mph - N/A   Clear
10:35 AM 44.6 °F 40.2 °F 14.0 °F 29% 29.99 in 10.0 mi West 8.1 mph - N/A   Clear
10:55 AM 46.4 °F 41.9 °F 12.2 °F 25% 29.99 in 10.0 mi WSW 9.2 mph - N/A   Clear
11:15 AM 48.2 °F - 12.2 °F 24% 29.98 in 10.0 mi West 10.4 mph - N/A   Clear
11:35 AM 48.2 °F - 12.2 °F 24% 29.97 in 10.0 mi WSW 11.5 mph - N/A   Clear
11:55 AM 50.0 °F - 12.2 °F 22% 29.97 in 10.0 mi WSW 12.7 mph - N/A   Clear
12:15 PM 51.8 °F - 12.2 °F 21% 29.95 in 10.0 mi West 18.4 mph 23.0 mph N/A   Clear
12:35 PM 51.8 °F - 12.2 °F 21% 29.94 in 10.0 mi WSW 11.5 mph 18.4 mph N/A   Clear
12:55 PM 51.8 °F - 12.2 °F 21% 29.93 in 10.0 mi WSW 12.7 mph 23.0 mph N/A   Clear
1:15 PM 53.6 °F - 14.0 °F 21% 29.92 in 10.0 mi SW 16.1 mph 21.9 mph N/A   Clear
1:35 PM 55.4 °F - 14.0 °F 20% 29.91 in 10.0 mi SW 17.3 mph 26.5 mph N/A   Clear
1:55 PM 55.4 °F - 15.8 °F 21% 29.90 in 10.0 mi SSW 18.4 mph 24.2 mph N/A   Clear
2:15 PM 55.4 °F - 14.0 °F 20% 29.89 in 10.0 mi SW 15.0 mph 21.9 mph N/A   Clear
2:35 PM 55.4 °F - 15.8 °F 21% 29.88 in 10.0 mi SW 17.3 mph 24.2 mph N/A   Clear
2:55 PM 57.2 °F - 14.0 °F 18% 29.87 in 10.0 mi SW 18.4 mph 26.5 mph N/A   Clear
3:15 PM 57.2 °F - 14.0 °F 18% 29.87 in 10.0 mi WSW 13.8 mph 26.5 mph N/A   Clear
3:35 PM 57.2 °F - 12.2 °F 17% 29.87 in 10.0 mi SW 18.4 mph 28.8 mph N/A   Clear
3:55 PM 57.2 °F - 10.4 °F 16% 29.87 in 10.0 mi WSW 19.6 mph 31.1 mph N/A   Clear
4:15 PM 55.4 °F - 12.2 °F 18% 29.88 in 10.0 mi WSW 18.4 mph 31.1 mph N/A   Clear
4:35 PM 57.2 °F - 12.2 °F 17% 29.88 in 10.0 mi SW 15.0 mph 23.0 mph N/A   Clear
4:55 PM 55.4 °F - 12.2 °F 18% 29.87 in 10.0 mi WSW 16.1 mph 25.3 mph N/A   Clear
5:15 PM 55.4 °F - 12.2 °F 18% 29.87 in 10.0 mi SW 12.7 mph 19.6 mph N/A   Clear
5:35 PM 55.4 °F - 12.2 °F 18% 29.87 in 10.0 mi WSW 8.1 mph 25.3 mph N/A   Clear
5:55 PM 55.4 °F - 12.2 °F 18% 29.88 in 10.0 mi SW 15.0 mph 23.0 mph N/A   Clear
6:15 PM 53.6 °F - 12.2 °F 19% 29.88 in 10.0 mi SW 10.4 mph 18.4 mph N/A   Clear
6:35 PM 53.6 °F - 12.2 °F 19% 29.88 in 10.0 mi SW 11.5 mph - N/A   Clear
6:55 PM 53.6 °F - 12.2 °F 19% 29.89 in 10.0 mi SW 10.4 mph - N/A   Clear
7:15 PM 53.6 °F - 12.2 °F 19% 29.90 in 10.0 mi SW 12.7 mph 19.6 mph N/A   Clear
7:35 PM 53.6 °F - 12.2 °F 19% 29.90 in 10.0 mi SW 10.4 mph 17.3 mph N/A   Clear
7:55 PM 51.8 °F - 12.2 °F 21% 29.91 in 10.0 mi SW 9.2 mph 17.3 mph N/A   Clear
8:15 PM 51.8 °F - 12.2 °F 21% 29.92 in 10.0 mi SW 9.2 mph - N/A   Clear
8:35 PM 51.8 °F - 12.2 °F 21% 29.93 in 10.0 mi SW 9.2 mph - N/A   Clear
8:55 PM 51.8 °F - 12.2 °F 21% 29.93 in 10.0 mi SW 10.4 mph - N/A   Clear
9:15 PM 50.0 °F - 12.2 °F 22% 29.94 in 10.0 mi SW 11.5 mph - N/A   Clear
9:35 PM 50.0 °F - 12.2 °F 22% 29.94 in 10.0 mi SW 9.2 mph - N/A   Clear
9:55 PM 48.2 °F - 14.0 °F 25% 29.95 in 10.0 mi SW 9.2 mph - N/A   Clear
10:15 PM 48.2 °F - 14.0 °F 25% 29.95 in 10.0 mi SW 6.9 mph - N/A   Clear
10:35 PM 46.4 °F 43.5 °F 14.0 °F 27% 29.95 in 10.0 mi SW 5.8 mph - N/A   Clear
10:55 PM 44.6 °F 43.1 °F 14.0 °F 29% 29.96 in 10.0 mi WNW 3.5 mph - N/A   Clear
11:15 PM 44.6 °F 42.2 °F 14.0 °F 29% 29.97 in 10.0 mi West 4.6 mph - N/A   Clear
11:35 PM 46.4 °F 43.5 °F 15.8 °F 29% 29.97 in 10.0 mi SW 5.8 mph - N/A   Clear
11:55 PM 46.4 °F 43.5 °F 15.8 °F 29% 29.97 in 10.0 mi WSW 5.8 mph - N/A   Clear